Time,TemperatureF,DewpointF,PressureIn,WindDirection,WindDirectionDegrees,WindSpeedMPH,WindSpeedGustMPH,Humidity,HourlyPrecipIn,Conditions,Clouds,dailyrainin,SolarRadiationWatts/m^2,SoftwareType,DateUTC
2013-06-18 00:02:00,84.0,24.0,-100.00,NW,317,5.0,12.0,11,0.00,,,0.00,1.000000,,2013-06-18 07:02:00,
2013-06-18 00:33:00,82.0,24.0,-100.00,SE,143,5.0,10.0,12,0.00,,,0.00,1.000000,,2013-06-18 07:33:00,
2013-06-18 00:43:00,82.0,24.0,-100.00,SE,143,5.0,10.0,12,0.00,,,0.00,1.000000,,2013-06-18 07:43:00,
2013-06-18 00:53:00,82.0,24.0,-100.00,SE,143,5.0,10.0,12,0.00,,,0.00,1.000000,,2013-06-18 07:53:00,
2013-06-18 01:01:00,82.0,24.0,-100.00,SE,143,5.0,10.0,12,0.00,,,0.00,1.000000,,2013-06-18 08:01:00,
2013-06-18 01:33:00,73.0,26.0,-100.00,NW,319,2.0,6.0,17,0.00,,,0.00,1.000000,,2013-06-18 08:33:00,
2013-06-18 01:43:00,73.0,26.0,-100.00,NW,319,2.0,6.0,17,0.00,,,0.00,1.000000,,2013-06-18 08:43:00,
2013-06-18 01:52:00,73.0,26.0,-100.00,NW,319,2.0,6.0,17,0.00,,,0.00,1.000000,,2013-06-18 08:52:00,
2013-06-18 02:01:00,73.0,26.0,-100.00,NW,319,2.0,6.0,17,0.00,,,0.00,1.000000,,2013-06-18 09:01:00,
2013-06-18 02:34:00,71.0,27.0,-100.00,NNE,19,3.0,5.0,19,0.00,,,0.00,1.000000,,2013-06-18 09:34:00,
2013-06-18 02:43:00,71.0,27.0,-100.00,NNE,19,3.0,5.0,19,0.00,,,0.00,1.000000,,2013-06-18 09:43:00,
2013-06-18 02:53:00,71.0,27.0,-100.00,NNE,19,3.0,5.0,19,0.00,,,0.00,1.000000,,2013-06-18 09:53:00,
2013-06-18 03:01:00,71.0,27.0,-100.00,NNE,19,3.0,5.0,19,0.00,,,0.00,1.000000,,2013-06-18 10:01:00,
2013-06-18 03:33:00,71.0,25.0,-100.00,NNE,18,2.0,5.0,18,0.00,,,0.00,1.000000,,2013-06-18 10:33:00,
2013-06-18 03:43:00,71.0,25.0,-100.00,NNE,18,2.0,5.0,18,0.00,,,0.00,1.000000,,2013-06-18 10:43:00,
2013-06-18 03:53:00,71.0,25.0,-100.00,NNE,18,2.0,5.0,18,0.00,,,0.00,1.000000,,2013-06-18 10:53:00,
2013-06-18 04:02:00,71.0,25.0,-100.00,NNE,18,2.0,5.0,18,0.00,,,0.00,1.000000,,2013-06-18 11:02:00,
2013-06-18 04:32:00,72.0,26.0,-100.00,NNE,27,3.0,5.0,18,0.00,,,0.00,1.000000,,2013-06-18 11:32:00,
2013-06-18 04:43:00,72.0,26.0,-100.00,NNE,27,3.0,5.0,18,0.00,,,0.00,1.000000,,2013-06-18 11:43:00,
2013-06-18 04:52:00,72.0,26.0,-100.00,NNE,27,3.0,5.0,18,0.00,,,0.00,1.000000,,2013-06-18 11:52:00,
2013-06-18 05:01:00,72.0,26.0,-100.00,NNE,27,3.0,5.0,18,0.00,,,0.00,1.000000,,2013-06-18 12:01:00,
2013-06-18 05:33:00,74.0,26.0,-100.00,NNE,25,2.0,7.0,17,0.00,,,-99.99,1.000000,,2013-06-18 12:33:00,
2013-06-18 05:43:00,74.0,26.0,-100.00,NNE,25,2.0,7.0,17,0.00,,,-99.99,1.000000,,2013-06-18 12:43:00,
2013-06-18 05:52:00,74.0,26.0,-100.00,NNE,25,2.0,7.0,17,0.00,,,-99.99,1.000000,,2013-06-18 12:52:00,
2013-06-18 06:01:00,74.0,26.0,-100.00,NNE,25,2.0,7.0,17,0.00,,,-99.99,1.000000,,2013-06-18 13:01:00,
2013-06-18 06:33:00,69.0,29.0,-100.00,NNW,341,2.0,5.0,22,0.00,,,0.00,22.000000,,2013-06-18 13:33:00,
2013-06-18 06:43:00,69.0,29.0,-100.00,NNW,341,2.0,5.0,22,0.00,,,0.00,22.000000,,2013-06-18 13:43:00,
2013-06-18 06:53:00,69.0,29.0,-100.00,NNW,341,2.0,5.0,22,0.00,,,0.00,22.000000,,2013-06-18 13:53:00,
2013-06-18 07:02:00,69.0,29.0,-100.00,NNW,341,2.0,5.0,22,0.00,,,0.00,22.000000,,2013-06-18 14:02:00,
2013-06-18 07:33:00,82.0,31.0,-100.00,West,267,2.0,4.0,16,0.00,,,0.00,208.000000,,2013-06-18 14:33:00,
2013-06-18 08:02:00,82.0,31.0,-100.00,West,267,2.0,4.0,16,0.00,,,0.00,208.000000,,2013-06-18 15:02:00,
2013-06-18 09:01:00,92.0,32.0,-100.00,North,355,2.0,4.0,12,0.00,,,0.00,417.000000,,2013-06-18 16:01:00,
2013-06-18 09:33:00,95.0,27.0,-100.00,SW,215,4.0,7.0,9,0.00,,,0.00,622.000000,,2013-06-18 16:33:00,
2013-06-18 09:43:00,95.0,27.0,-100.00,SW,215,4.0,7.0,9,0.00,,,0.00,622.000000,,2013-06-18 16:43:00,
2013-06-18 09:53:00,95.0,27.0,-100.00,SW,215,4.0,7.0,9,0.00,,,0.00,622.000000,,2013-06-18 16:53:00,
2013-06-18 10:01:00,95.0,27.0,-100.00,SW,215,4.0,7.0,9,0.00,,,0.00,622.000000,,2013-06-18 17:01:00,
2013-06-18 10:34:00,98.0,30.0,-100.00,SW,215,4.0,7.0,9,0.00,,,0.00,802.000000,,2013-06-18 17:34:00,
2013-06-18 10:43:00,98.0,30.0,-100.00,SW,215,4.0,7.0,9,0.00,,,0.00,802.000000,,2013-06-18 17:43:00,
2013-06-18 10:53:00,98.0,30.0,-100.00,SW,215,4.0,7.0,9,0.00,,,0.00,802.000000,,2013-06-18 17:53:00,
2013-06-18 11:01:00,98.0,30.0,-100.00,SW,215,4.0,7.0,9,0.00,,,0.00,802.000000,,2013-06-18 18:01:00,
2013-06-18 11:33:00,101.0,29.0,-100.00,ENE,67,4.0,8.0,8,0.00,,,0.00,938.000000,,2013-06-18 18:33:00,
2013-06-18 11:42:00,101.0,29.0,-100.00,ENE,67,4.0,8.0,8,0.00,,,0.00,938.000000,,2013-06-18 18:42:00,
2013-06-18 11:53:00,101.0,29.0,-100.00,ENE,67,4.0,8.0,8,0.00,,,0.00,938.000000,,2013-06-18 18:53:00,
2013-06-18 12:01:00,101.0,29.0,-100.00,ENE,67,4.0,8.0,8,0.00,,,0.00,938.000000,,2013-06-18 19:01:00,
2013-06-18 12:33:00,103.0,27.0,-100.00,SW,219,6.0,11.0,7,0.00,,,0.00,1018.000000,,2013-06-18 19:33:00,
2013-06-18 12:43:00,103.0,27.0,-100.00,SW,219,6.0,11.0,7,0.00,,,0.00,1018.000000,,2013-06-18 19:43:00,
2013-06-18 12:52:00,103.0,27.0,-100.00,SW,219,6.0,11.0,7,0.00,,,0.00,1018.000000,,2013-06-18 19:52:00,
2013-06-18 13:01:00,103.0,27.0,-100.00,SW,219,6.0,11.0,7,0.00,,,0.00,1018.000000,,2013-06-18 20:01:00,
2013-06-18 13:33:00,104.0,24.0,-100.00,ENE,62,4.0,13.0,6,0.00,,,0.00,1039.000000,,2013-06-18 20:33:00,
2013-06-18 13:43:00,104.0,24.0,-100.00,ENE,62,4.0,13.0,6,0.00,,,0.00,1039.000000,,2013-06-18 20:43:00,
2013-06-18 13:52:00,104.0,24.0,-100.00,ENE,62,4.0,13.0,6,0.00,,,0.00,1039.000000,,2013-06-18 20:52:00,
2013-06-18 14:01:00,104.0,24.0,-100.00,ENE,62,4.0,13.0,6,0.00,,,0.00,1039.000000,,2013-06-18 21:01:00,
2013-06-18 14:33:00,106.0,9.0,-100.00,SW,224,6.0,20.0,3,0.00,,,0.00,1010.000000,,2013-06-18 21:33:00,
2013-06-18 14:43:00,106.0,9.0,-100.00,SW,224,6.0,20.0,3,0.00,,,0.00,1010.000000,,2013-06-18 21:43:00,
2013-06-18 14:52:00,106.0,9.0,-100.00,SW,224,6.0,20.0,3,0.00,,,0.00,1010.000000,,2013-06-18 21:52:00,
2013-06-18 15:01:00,106.0,9.0,-100.00,SW,224,6.0,20.0,3,0.00,,,0.00,1010.000000,,2013-06-18 22:01:00,
2013-06-18 16:39:00,106.0,-14.0,-100.00,WSW,238,8.0,16.0,1,0.00,,,0.00,776.000000,,2013-06-18 23:39:00,
2013-06-18 16:48:00,106.0,-14.0,-100.00,WSW,238,8.0,16.0,1,0.00,,,0.00,776.000000,,2013-06-18 23:48:00,
2013-06-18 16:53:00,106.0,-14.0,-100.00,WSW,238,8.0,16.0,1,0.00,,,0.00,776.000000,,2013-06-18 23:53:00,
2013-06-18 17:01:00,106.0,-14.0,-100.00,WSW,238,8.0,16.0,1,0.00,,,0.00,776.000000,,2013-06-19 00:01:00,
2013-06-18 17:33:00,105.0,-14.0,-100.00,West,270,8.0,17.0,1,0.00,,,0.00,585.000000,,2013-06-19 00:33:00,
2013-06-18 17:43:00,105.0,-14.0,-100.00,West,270,8.0,17.0,1,0.00,,,0.00,585.000000,,2013-06-19 00:43:00,
2013-06-18 17:53:00,105.0,-14.0,-100.00,West,270,8.0,17.0,1,0.00,,,0.00,585.000000,,2013-06-19 00:53:00,
2013-06-18 18:01:00,105.0,-14.0,-100.00,West,270,8.0,17.0,1,0.00,,,0.00,585.000000,,2013-06-19 01:01:00,
2013-06-18 18:32:00,103.0,-15.0,-100.00,SW,214,8.0,13.0,1,0.00,,,0.00,365.000000,,2013-06-19 01:32:00,
2013-06-18 18:43:00,103.0,-15.0,-100.00,SW,214,8.0,13.0,1,0.00,,,0.00,365.000000,,2013-06-19 01:43:00,
2013-06-18 18:53:00,103.0,-15.0,-100.00,SW,214,8.0,13.0,1,0.00,,,0.00,365.000000,,2013-06-19 01:53:00,
2013-06-18 19:01:00,103.0,-15.0,-100.00,SW,214,8.0,13.0,1,0.00,,,0.00,365.000000,,2013-06-19 02:01:00,
2013-06-18 19:32:00,98.0,-18.0,-100.00,West,266,6.0,12.0,1,0.00,,,0.00,111.000000,,2013-06-19 02:32:00,
2013-06-18 19:42:00,98.0,-18.0,-100.00,West,266,6.0,12.0,1,0.00,,,0.00,111.000000,,2013-06-19 02:42:00,
2013-06-18 19:52:00,98.0,-18.0,-100.00,West,266,6.0,12.0,1,0.00,,,0.00,111.000000,,2013-06-19 02:52:00,
2013-06-18 21:33:00,86.0,2.0,-100.00,NW,313,5.0,9.0,4,0.00,,,0.00,1.000000,,2013-06-19 04:33:00,
2013-06-18 21:43:00,86.0,2.0,-100.00,NW,313,5.0,9.0,4,0.00,,,0.00,1.000000,,2013-06-19 04:43:00,
2013-06-18 21:53:00,86.0,2.0,-100.00,NW,313,5.0,9.0,4,0.00,,,0.00,1.000000,,2013-06-19 04:53:00,
2013-06-18 22:01:00,86.0,2.0,-100.00,NW,313,5.0,9.0,4,0.00,,,0.00,1.000000,,2013-06-19 05:01:00,
2013-06-18 23:34:00,74.0,6.0,-100.00,ESE,113,2.0,7.0,7,0.00,,,0.00,1.000000,,2013-06-19 06:34:00,